This demonstration page uses our WeatherBlox Daily Observations layout. Learn more.

Hourly Observations for February 18, 2015

Temp ( °F °C ) Dew Point ( °F °C ) Humidity (%) Winds ( mph kmh ) Pressure ( in mb ) Visibility ( mi km ) Precip ( " mm )
12:15 am 00:15 Clear 14 -9.8 5 -15.2 65 65 NW 10 17 30.33 1027 10 16.0934 0 0
12:35 am 00:35 Clear 14 -9.8 4 -15.4 64 64 NW 8 13 30.33 1027 10 16.0934 0 0
12:55 am 00:55 Clear 13 -10.5 4 -15.4 68 68 WNW 7 11 30.33 1027 10 16.0934 0 0
1:15 am 01:15 Clear 13 -10.5 5 -15.1 69 69 WNW 9 15 30.33 1027 10 16.0934 0 0
1:35 am 01:35 Clear 15 -9.4 5 -15 64 64 NW 12 19 30.33 1027 10 16.0934 0 0
1:55 am 01:55 Clear 16 -9 4 -15.5 60 60 NNW 13 20 30.33 1027 10 16.0934 0 0
2:15 am 02:15 Clear 16 -9.1 3 -16.1 57 57 NNW 10 17 30.33 1027 10 16.0934 0 0
2:35 am 02:35 Clear 14 -9.9 2 -16.5 59 59 NNW 9 15 30.33 1027 10 16.0934 0 0
2:55 am 02:55 Clear 14 -10.2 1 -17 58 58 NNW 8 13 30.33 1027 10 16.0934 0 0
3:15 am 03:15 Clear 12 -10.9 1 -17.2 60 60 NNW 7 11 30.33 1027 10 16.0934 0 0
3:35 am 03:35 Clear 10 -12.2 0 -17.6 64 64 N 7 11 30.36 1028 10 16.0934 0 0
3:55 am 03:55 Clear 9 -12.9 1 -17.4 69 69 N 8 13 30.36 1028 10 16.0934 0 0
4:15 am 04:15 Clear 10 -12 2 -16.7 68 68 N 8 13 30.36 1028 10 16.0934 0 0
4:35 am 04:35 Clear 11 -11.6 1 -17 65 65 NNW 9 15 30.39 1029 10 16.0934 0 0
4:55 am 04:55 Clear 11 -11.7 1 -17.3 63 63 NNW 8 13 30.39 1029 10 16.0934 0 0
5:15 am 05:15 Clear 9 -12.6 1 -17.2 69 69 WNW 5 7 30.39 1029 10 16.0934 0 0
5:35 am 05:35 Clear 8 -13.3 0 -17.6 70 70 W 7 11 30.42 1030 10 16.0934 0 0
5:55 am 05:55 Clear 8 -13.2 0 -17.8 69 69 WNW 7 11 30.42 1030 10 16.0934 0 0
6:15 am 06:15 Clear 8 -13.6 -1 -18.2 69 69 WNW 5 7 30.45 1031 10 16.0934 0 0
6:35 am 06:35 Clear 8 -13.3 0 -18 68 68 NW 6 9 30.42 1030 10 16.0934 0 0
6:55 am 06:55 Clear 6 -14.4 -1 -18.5 71 71 NW 6 9 30.45 1031 10 16.0934 0 0
7:15 am 07:15 Clear 6 -14.7 -2 -18.7 72 72 WNW 3 6 30.48 1032 10 16.0934 0 0
7:35 am 07:35 Sunny 5 -15 -2 -18.9 72 72 NW 6 9 30.48 1032 10 16.0934 0 0
7:55 am 07:55 Sunny 6 -14.2 -1 -18.5 70 70 NW 5 7 30.48 1032 10 16.0934 0 0
8:15 am 08:15 Sunny 8 -13.3 0 -17.6 70 70 Calm 30.5 1033 10 16.0934 0 0
8:35 am 08:35 Sunny 12 -11.2 3 -16.1 67 67 NNW 12 19 30.48 1032 10 16.0934 0 0
8:55 am 08:55 Sunny 13 -10.5 2 -16.9 60 60 NNW 14 22 30.45 1031 10 16.0934 0 0
9:15 am 09:15 Sunny 13 -10.5 1 -17 59 59 NNW 10 17 30.45 1031 10 16.0934 0 0
9:35 am 09:35 Sunny 14 -10.1 2 -16.8 58 58 NW 9 15 30.5 1033 10 16.0934 0 0
9:55 am 09:55 Sunny 15 -9.2 2 -16.6 55 55 NNW 12 19 30.48 1032 10 16.0934 0 0
10:15 am 10:15 Partly Cloudy 17 -8.3 2 -16.7 51 51 NW 13 20 30.48 1032 10 16.0934 0 0
10:35 am 10:35 Sunny 18 -7.6 1 -17 47 47 N 8 13 30.48 1032 10 16.0934 0 0
10:55 am 10:55 Sunny 19 -7.1 0 -17.7 43 43 NNW 13 20 30.48 1032 10 16.0934 0 0
11:15 am 11:15 Sunny 20 -6.6 0 -17.6 42 42 NNW 13 20 30.48 1032 10 16.0934 0 0
11:35 am 11:35 Sunny 21 -6.1 -1 -18.2 38 38 NNW 12 19 30.45 1031 10 16.0934 0 0
11:55 am 11:55 Sunny 22 -5.5 0 -17.7 38 38 NNW 12 19 30.45 1031 10 16.0934 0 0
12:15 pm 12:15 Sunny 24 -4.6 0 -17.9 35 35 NNW 9 15 30.45 1031 10 16.0934 0 0
12:35 pm 12:35 Sunny 25 -4.1 -1 -18.4 32 32 NW 14 22 30.45 1031 10 16.0934 0 0
12:55 pm 12:55 Sunny 26 -3.5 0 -17.9 32 32 NW 10 17 30.39 1029 10 16.0934 0 0
1:15 pm 13:15 Sunny 27 -2.9 -1 -18.2 30 30 NW 12 19 30.39 1029 10 16.0934 0 0
1:35 pm 13:35 Sunny 27 -3 0 -18 31 31 NW 14 22 30.39 1029 10 16.0934 0 0
1:55 pm 13:55 Sunny 28 -2 0 -17.9 29 29 NW 18 30 30.39 1029 10 16.0934 0 0
2:15 pm 14:15 Sunny 29 -1.5 -2 -18.7 26 26 NW 17 28 30.36 1028 10 16.0934 0 0
2:35 pm 14:35 Sunny 29 -1.7 -1 -18.5 27 27 NW 14 22 30.39 1029 10 16.0934 0 0
2:55 pm 14:55 Partly Cloudy 28 -2 -1 -18.5 27 27 NW 14 22 30.36 1028 10 16.0934 0 0
3:15 pm 15:15 Mostly Cloudy 29 -1.9 -2 -19 26 26 NNW 16 26 30.36 1028 10 16.0934 0 0
3:35 pm 15:35 Cloudy 29 -1.6 -2 -18.9 26 26 NW 16 26 30.36 1028 10 16.0934 0 0
3:55 pm 15:55 Cloudy 29 -1.4 -2 -18.8 25 25 NNW 14 22 30.33 1027 10 16.0934 0 0
4:15 pm 16:15 Cloudy 29 -1.5 -2 -18.7 26 26 NNW 16 26 30.33 1027 10 16.0934 0 0
4:35 pm 16:35 Cloudy 29 -1.5 -1 -18.2 27 27 NNW 14 22 30.33 1027 10 16.0934 0 0
4:55 pm 16:55 Cloudy 29 -1.5 -1 -18.1 27 27 NNW 12 19 30.33 1027 10 16.0934 0 0
5:15 pm 17:15 Cloudy 29 -1.7 -1 -18.1 28 28 NNW 12 19 30.36 1028 10 16.0934 0 0
5:35 pm 17:35 Cloudy 28 -2 0 -17.6 29 29 NNW 10 17 30.36 1028 10 16.0934 0 0
5:55 pm 17:55 Cloudy 28 -2.1 1 -17.3 30 30 NNW 8 13 30.36 1028 10 16.0934 0 0
6:15 pm 18:15 Cloudy 26 -3.2 3 -16.2 36 36 ENE 10 17 30.39 1029 10 16.0934 0 0
6:35 pm 18:35 Cloudy 22 -5.5 5 -14.9 48 48 E 9 15 30.42 1030 10 16.0934 0 0
6:55 pm 18:55 Cloudy 21 -6 5 -14.8 50 50 E 7 11 30.42 1030 10 16.0934 0 0
7:15 pm 19:15 Cloudy 21 -6.2 5 -14.8 51 51 ESE 7 11 30.42 1030 10 16.0934 0 0
7:35 pm 19:35 Cloudy 20 -6.5 6 -14.6 53 53 E 8 13 30.42 1030 10 16.0934 0 0
7:55 pm 19:55 Cloudy 20 -6.7 5 -14.8 53 53 E 9 15 30.42 1030 10 16.0934 0 0
8:15 pm 20:15 Cloudy 20 -6.8 6 -14.7 54 54 E 9 15 30.42 1030 10 16.0934 0 0
8:35 pm 20:35 Cloudy 19 -7 5 -15 53 53 E 7 11 30.42 1030 10 16.0934 0 0
8:55 pm 20:55 Cloudy 19 -7.1 5 -14.9 54 54 E 7 11 30.42 1030 10 16.0934 0 0
9:15 pm 21:15 Cloudy 19 -7.2 5 -15 54 54 E 5 7 30.42 1030 10 16.0934 0 0
9:35 pm 21:35 Cloudy 19 -7.2 5 -15 54 54 E 6 9 30.42 1030 10 16.0934 0 0
9:55 pm 21:55 Cloudy 19 -7.2 5 -15.1 54 54 ENE 5 7 30.48 1032 10 16.0934 0 0
10:15 pm 22:15 Cloudy 19 -7.2 5 -15.1 54 54 ENE 7 11 30.42 1030 10 16.0934 0 0
10:35 pm 22:35 Cloudy 19 -7.3 5 -15.2 54 54 ESE 6 9 30.48 1032 10 16.0934 0 0
10:55 pm 22:55 Cloudy 19 -7.4 4 -15.7 52 52 E 6 9 30.48 1032 10 16.0934 0 0
11:15 pm 23:15 Cloudy 19 -7.5 4 -15.6 53 53 E 8 13 30.42 1030 10 16.0934 0 0
11:35 pm 23:35 Cloudy 19 -7.5 4 -15.3 54 54 ESE 8 13 30.42 1030 10 16.0934 0 0
11:55 pm 23:55 Cloudy 18 -7.6 4 -15.3 54 54 SE 7 11 30.48 1032 10 16.0934 0 0

Powered by AerisWeather